Station Historical Data
Daily Summary for March 13, 2017 Units:  Metric    English   Both
« Previous Day
Next Day »
Daily Weekly Monthly Yearly Custom
  High: Low: Average:
Temperature: -5.7 °C -11.3 °C -8.3 °C
Dew Point: -9 °C -14.5 °C -11.7 °C
Humidity: 86% 65% 77%
Wind Speed: 20.9km/h 0km/h 6.4km/h
Wind Gust: 33.8km/h - -
Wind- - ENE
Pressure: 1033.7 hPa 1023.9 hPa -
Precipitation: 0 mm    
Historical Graphs
 
 
Tabular Data for March 13, 2017
Time Temperature Dew Point Pressure Wind Wind Speed Wind Gust Humidity Rainfall Rate (Hourly)
00:04 -9.8 °C -14.1 °C 1032.4 hPa Calm   4.8 km/h 71% 0 mm
00:09 -9.5 °C -13.8 °C 1032.4 hPa Calm   6.4 km/h 71% 0 mm
00:14 -9.4 °C -14 °C 1032.4 hPa NNW 1.6 km/h 6.4 km/h 69% 0 mm
00:19 -9.4 °C -13.9 °C 1032.4 hPa NNW 1.6 km/h 6.4 km/h 70% 0 mm
00:24 -9.4 °C -13.9 °C 1032.1 hPa NNW 1.6 km/h 6.4 km/h 70% 0 mm
00:29 -9.3 °C -13.9 °C 1032.1 hPa North 1.6 km/h 4.8 km/h 69% 0 mm
00:34 -9.3 °C -14 °C 1032.4 hPa NW 1.6 km/h 6.4 km/h 69% 0 mm
00:39 -9.4 °C -14 °C 1032.4 hPa NW 1.6 km/h 4.8 km/h 69% 0 mm
00:44 -9.6 °C -14 °C 1032.4 hPa NW 1.6 km/h 4.8 km/h 70% 0 mm
00:49 -9.6 °C -14.1 °C 1032.4 hPa Calm   6.4 km/h 70% 0 mm
00:54 -9.6 °C -14 °C 1032.7 hPa Calm   4.8 km/h 70% 0 mm
00:59 -9.7 °C -14.3 °C 1032.4 hPa Calm   4.8 km/h 69% 0 mm
01:04 -9.8 °C -14.1 °C 1032.4 hPa Calm   3.2 km/h 71% 0 mm
01:09 -9.9 °C -14.1 °C 1032.7 hPa Calm   3.2 km/h 72% 0 mm
01:14 -10.1 °C -14.2 °C 1032.7 hPa Calm     72% 0 mm
01:19 -10.1 °C -14.1 °C 1032.7 hPa Calm     73% 0 mm
01:24 -10.2 °C -14.1 °C 1032.7 hPa Calm     73% 0 mm
01:29 -10.2 °C -14.2 °C 1032.7 hPa Calm     73% 0 mm
01:34 -10.3 °C -14.2 °C 1032.4 hPa Calm     73% 0 mm
01:39 -10.4 °C -14.2 °C 1032.7 hPa Calm     74% 0 mm
01:44 -10.6 °C -14.3 °C 1032.7 hPa Calm     74% 0 mm
01:49 -10.8 °C -14.4 °C 1032.7 hPa Calm     75% 0 mm
01:54 -10.9 °C -14.2 °C 1032.7 hPa Calm     77% 0 mm
01:59 -11.1 °C -14.3 °C 1032.7 hPa Calm     77% 0 mm
02:04 -11.3 °C -14.5 °C 1032.7 hPa Calm     77% 0 mm
02:09 -11.3 °C -14.3 °C 1032.7 hPa Calm     78% 0 mm
02:14 -11.2 °C -14.2 °C 1032.7 hPa Calm     78% 0 mm
02:19 -10.9 °C -13.8 °C 1033.1 hPa Calm     79% 0 mm
02:24 -10.8 °C -13.9 °C 1033.1 hPa Calm     78% 0 mm
02:29 -10.9 °C -14.2 °C 1033.1 hPa Calm   1.6 km/h 77% 0 mm
02:34 -10.9 °C -14 °C 1033.1 hPa Calm   3.2 km/h 78% 0 mm
02:39 -10.8 °C -13.9 °C 1033.1 hPa Calm   3.2 km/h 78% 0 mm
02:44 -10.6 °C -13.7 °C 1033.1 hPa Calm   1.6 km/h 78% 0 mm
02:49 -10.5 °C -13.6 °C 1033.1 hPa Calm     78% 0 mm
02:54 -10.2 °C -13.5 °C 1033.1 hPa Calm   4.8 km/h 77% 0 mm
02:59 -9.9 °C -13.3 °C 1033.1 hPa Calm   3.2 km/h 76% 0 mm
03:04 -9.8 °C -13.4 °C 1033.1 hPa NNW 1.6 km/h 3.2 km/h 75% 0 mm
03:09 -9.6 °C -13.3 °C 1033.1 hPa NNW 1.6 km/h 3.2 km/h 74% 0 mm
03:14 -9.5 °C -13.3 °C 1033.1 hPa NE 3.2 km/h 4.8 km/h 74% 0 mm
03:19 -9.4 °C -13.4 °C 1033.1 hPa Calm   6.4 km/h 73% 0 mm
03:24 -9.4 °C -13.3 °C 1033.1 hPa NE 6.4 km/h 8 km/h 73% 0 mm
03:29 -9.3 °C -13.1 °C 1032.7 hPa NE 3.2 km/h 8 km/h 74% 0 mm
03:34 -9.3 °C -13.2 °C 1033.1 hPa NE 3.2 km/h 11.3 km/h 73% 0 mm
03:39 -9.3 °C -13.2 °C 1033.1 hPa NNE 3.2 km/h 11.3 km/h 73% 0 mm
03:44 -9.3 °C -13.2 °C 1032.7 hPa NNE 3.2 km/h 8 km/h 73% 0 mm
03:49 -9.3 °C -13.3 °C 1032.7 hPa NNE 6.4 km/h 8 km/h 73% 0 mm
03:54 -9.3 °C -13.3 °C 1032.7 hPa NE 1.6 km/h 8 km/h 73% 0 mm
03:59 -9.4 °C -13.3 °C 1032.7 hPa NE 3.2 km/h 4.8 km/h 73% 0 mm
04:04 -9.4 °C -13.2 °C 1032.7 hPa NE 3.2 km/h 8 km/h 74% 0 mm
04:09 -9.6 °C -13.3 °C 1032.7 hPa NE 3.2 km/h 8 km/h 74% 0 mm
04:14 -9.6 °C -13.4 °C 1032.4 hPa NE 3.2 km/h 6.4 km/h 74% 0 mm
04:19 -9.6 °C -13.4 °C 1032.7 hPa NE 3.2 km/h 8 km/h 74% 0 mm
04:24 -9.7 °C -13.4 °C 1032.7 hPa NE 3.2 km/h 6.4 km/h 74% 0 mm
04:29 -9.7 °C -13.4 °C 1032.4 hPa NE 1.6 km/h 8 km/h 74% 0 mm
04:34 -9.7 °C -13.4 °C 1032.4 hPa NE 3.2 km/h 8 km/h 74% 0 mm
04:39 -9.7 °C -13.4 °C 1032.4 hPa NE 1.6 km/h 6.4 km/h 74% 0 mm
04:44 -9.7 °C -13.5 °C 1032.4 hPa NE 1.6 km/h 4.8 km/h 74% 0 mm
04:49 -9.7 °C -13.4 °C 1032.4 hPa NE 3.2 km/h 8 km/h 74% 0 mm
04:54 -9.6 °C -13.4 °C 1032.4 hPa NE 3.2 km/h 8 km/h 74% 0 mm
04:59 -9.6 °C -13.5 °C 1032.4 hPa NE 4.8 km/h 9.7 km/h 73% 0 mm
05:04 -9.6 °C -13.5 °C 1032.4 hPa NE 4.8 km/h 9.7 km/h 73% 0 mm
05:09 -9.6 °C -13.5 °C 1032.4 hPa NE 4.8 km/h 8 km/h 73% 0 mm
05:14 -9.6 °C -13.5 °C 1032.7 hPa NE 3.2 km/h 6.4 km/h 73% 0 mm
05:19 -9.6 °C -13.6 °C 1032.7 hPa NE 3.2 km/h 6.4 km/h 73% 0 mm
05:24 -9.6 °C -13.5 °C 1032.7 hPa ENE 3.2 km/h 6.4 km/h 73% 0 mm
05:29 -9.7 °C -13.4 °C 1032.7 hPa Calm   4.8 km/h 74% 0 mm
05:34 -9.7 °C -13.3 °C 1032.7 hPa NE 1.6 km/h 4.8 km/h 75% 0 mm
05:39 -9.9 °C -13.4 °C 1032.7 hPa SE 1.6 km/h 6.4 km/h 76% 0 mm
05:44 -10.2 °C -13.6 °C 1032.7 hPa SE 1.6 km/h 6.4 km/h 76% 0 mm
05:49 -10.3 °C -13.6 °C 1032.4 hPa East 1.6 km/h 4.8 km/h 77% 0 mm
05:54 -10.3 °C -13.6 °C 1032.4 hPa ENE 1.6 km/h 4.8 km/h 77% 0 mm
05:59 -10.3 °C -13.6 °C 1032.4 hPa East 1.6 km/h 6.4 km/h 77% 0 mm
06:04 -10.3 °C -13.6 °C 1032.4 hPa ESE 3.2 km/h 6.4 km/h 77% 0 mm
06:09 -10.3 °C -13.6 °C 1032.7 hPa ESE 1.6 km/h 6.4 km/h 77% 0 mm
06:14 -10.3 °C -13.6 °C 1032.7 hPa ESE 1.6 km/h 6.4 km/h 77% 0 mm
06:19 -10.2 °C -13.4 °C 1032.7 hPa Calm   3.2 km/h 77% 0 mm
06:24 -10.1 °C -13.6 °C 1032.7 hPa ESE 1.6 km/h 3.2 km/h 76% 0 mm
06:29 -10.1 °C -13.5 °C 1032.7 hPa ESE 1.6 km/h 4.8 km/h 76% 0 mm
06:34 -10 °C -13.4 °C 1033.1 hPa Calm   4.8 km/h 76% 0 mm
06:39 -9.9 °C -13.4 °C 1033.1 hPa ESE 1.6 km/h 3.2 km/h 76% 0 mm
06:44 -9.9 °C -13.3 °C 1033.1 hPa ENE 1.6 km/h 4.8 km/h 76% 0 mm
06:49 -9.8 °C -13.4 °C 1033.1 hPa ENE 1.6 km/h 4.8 km/h 75% 0 mm
06:54 -9.8 °C -13.4 °C 1033.4 hPa ENE 1.6 km/h 8 km/h 75% 0 mm
06:59 -9.7 °C -13.3 °C 1033.4 hPa ENE 1.6 km/h 8 km/h 75% 0 mm
07:04 -9.7 °C -13.3 °C 1033.4 hPa Calm   3.2 km/h 75% 0 mm
07:09 -9.7 °C -13.3 °C 1033.1 hPa ENE 1.6 km/h 3.2 km/h 75% 0 mm
07:14 -9.6 °C -13.2 °C 1033.1 hPa NE 4.8 km/h 8 km/h 75% 0 mm
07:19 -9.6 °C -13.2 °C 1033.1 hPa ENE 1.6 km/h 6.4 km/h 75% 0 mm
07:24 -9.6 °C -13.3 °C 1033.1 hPa ENE 1.6 km/h 6.4 km/h 74% 0 mm
07:29 -9.6 °C -13.2 °C 1033.1 hPa ENE 1.6 km/h 4.8 km/h 75% 0 mm
07:34 -9.5 °C -13.3 °C 1033.1 hPa ENE 3.2 km/h 4.8 km/h 74% 0 mm
07:39 -9.4 °C -13.2 °C 1033.1 hPa ENE 1.6 km/h 4.8 km/h 74% 0 mm
07:44 -9.4 °C -13.2 °C 1033.4 hPa ENE 1.6 km/h 3.2 km/h 74% 0 mm
07:49 -9.4 °C -13.2 °C 1033.4 hPa NE 3.2 km/h 4.8 km/h 74% 0 mm
07:54 -9.4 °C -13.2 °C 1033.4 hPa ENE 3.2 km/h 8 km/h 74% 0 mm
07:59 -9.3 °C -13.1 °C 1033.4 hPa ENE 3.2 km/h 8 km/h 74% 0 mm
08:04 -9.2 °C -13 °C 1033.4 hPa ENE 1.6 km/h 6.4 km/h 74% 0 mm
08:09 -9.2 °C -12.9 °C 1033.4 hPa ENE 3.2 km/h 4.8 km/h 74% 0 mm
08:14 -9.1 °C -13.1 °C 1033.7 hPa ENE 1.6 km/h 4.8 km/h 73% 0 mm
08:19 -9.1 °C -13 °C 1033.7 hPa SE 3.2 km/h 4.8 km/h 73% 0 mm
08:24 -9.1 °C -13.1 °C 1033.7 hPa ESE 1.6 km/h 4.8 km/h 73% 0 mm
08:29 -9.2 °C -13.1 °C 1033.7 hPa SE 1.6 km/h 4.8 km/h 73% 0 mm
08:34 -9.1 °C -13.2 °C 1033.7 hPa SE 1.6 km/h 4.8 km/h 72% 0 mm
08:39 -9 °C -13.3 °C 1033.7 hPa ESE 1.6 km/h 4.8 km/h 71% 0 mm
08:44 -8.9 °C -13 °C 1033.7 hPa Calm   4.8 km/h 72% 0 mm
08:49 -8.8 °C -13.1 °C 1033.7 hPa East 1.6 km/h 8 km/h 71% 0 mm
08:54 -8.7 °C -13 °C 1033.4 hPa ENE 4.8 km/h 4.8 km/h 71% 0 mm
08:59 -8.6 °C -13.1 °C 1033.4 hPa ENE 3.2 km/h 11.3 km/h 70% 0 mm
09:04 -8.6 °C -13.1 °C 1033.4 hPa East 4.8 km/h 11.3 km/h 70% 0 mm
09:09 -8.6 °C -13.1 °C 1033.4 hPa East 4.8 km/h 9.7 km/h 70% 0 mm
09:14 -8.4 °C -13.1 °C 1033.4 hPa ESE 4.8 km/h 11.3 km/h 69% 0 mm
09:19 -8.4 °C -13.1 °C 1033.4 hPa Calm   6.4 km/h 69% 0 mm
09:24 -8.4 °C -13.3 °C 1033.4 hPa East 1.6 km/h 12.9 km/h 68% 0 mm
09:29 -8.4 °C -13.2 °C 1033.1 hPa ENE 3.2 km/h 11.3 km/h 68% 0 mm
09:34 -8.3 °C -13.2 °C 1033.1 hPa NE 8 km/h 12.9 km/h 68% 0 mm
09:39 -8.3 °C -13.4 °C 1033.4 hPa ENE 4.8 km/h 12.9 km/h 67% 0 mm
09:44 -8.3 °C -13.3 °C 1033.1 hPa ENE 4.8 km/h 12.9 km/h 67% 0 mm
09:49 -8.2 °C -13.1 °C 1033.1 hPa NE 4.8 km/h 11.3 km/h 68% 0 mm
09:54 -8.1 °C -13.1 °C 1032.7 hPa East 4.8 km/h 8 km/h 67% 0 mm
09:59 -8 °C -13.1 °C 1032.7 hPa East 12.9 km/h 12.9 km/h 67% 0 mm
10:04 -8 °C -13.2 °C 1032.7 hPa ENE 4.8 km/h 12.9 km/h 66% 0 mm
10:09 -8 °C -13.1 °C 1032.7 hPa ENE 4.8 km/h 12.9 km/h 67% 0 mm
10:14 -7.9 °C -13 °C 1032.4 hPa East 1.6 km/h 16.1 km/h 67% 0 mm
10:19 -7.7 °C -12.8 °C 1032.4 hPa NNE 6.4 km/h 12.9 km/h 67% 0 mm
10:24 -7.7 °C -13 °C 1032.4 hPa East 8 km/h 16.1 km/h 66% 0 mm
10:29 -7.8 °C -12.8 °C 1032.1 hPa East 3.2 km/h 11.3 km/h 67% 0 mm
10:34 -7.8 °C -13.1 °C 1031.7 hPa NE 3.2 km/h 16.1 km/h 66% 0 mm
10:39 -7.6 °C -12.7 °C 1032.1 hPa East 6.4 km/h 16.1 km/h 67% 0 mm
10:44 -7.4 °C -12.7 °C 1032.1 hPa ENE 6.4 km/h 12.9 km/h 66% 0 mm
10:49 -7.5 °C -12.8 °C 1031.7 hPa ENE 6.4 km/h 14.5 km/h 66% 0 mm
10:54 -7.5 °C -12.6 °C 1031.7 hPa ESE 6.4 km/h 14.5 km/h 67% 0 mm
10:59 -7.3 °C -12.2 °C 1031.7 hPa ESE 4.8 km/h 14.5 km/h 68% 0 mm
11:04 -7.3 °C -12.6 °C 1031.7 hPa ESE 4.8 km/h 14.5 km/h 66% 0 mm
11:09 -7.2 °C -12.5 °C 1031.7 hPa ENE 6.4 km/h 12.9 km/h 66% 0 mm
11:14 -7.1 °C -12.2 °C 1031.7 hPa ENE 3.2 km/h 12.9 km/h 67% 0 mm
11:19 -7 °C -12.1 °C 1031.7 hPa East 4.8 km/h 14.5 km/h 67% 0 mm
11:24 -7.2 °C -12.4 °C 1031.7 hPa SE 4.8 km/h 11.3 km/h 66% 0 mm
11:29 -6.8 °C -11.9 °C 1031.7 hPa NE 6.4 km/h 11.3 km/h 67% 0 mm
11:34 -6.8 °C -12.1 °C 1031.4 hPa NE 1.6 km/h 14.5 km/h 66% 0 mm
11:39 -6.7 °C -11.9 °C 1031.4 hPa ESE 6.4 km/h 11.3 km/h 66% 0 mm
11:44 -6.6 °C -11.9 °C 1031.4 hPa ENE 4.8 km/h 11.3 km/h 66% 0 mm
11:49 -6.7 °C -12.2 °C 1031.4 hPa East 4.8 km/h 14.5 km/h 65% 0 mm
11:54 -6.5 °C -11.6 °C 1031 hPa SSE 4.8 km/h 12.9 km/h 67% 0 mm
11:59 -6.7 °C -11.8 °C 1031 hPa ESE 4.8 km/h 12.9 km/h 67% 0 mm
12:04 -6.3 °C -11.3 °C 1031 hPa ESE 4.8 km/h 11.3 km/h 68% 0 mm
12:09 -6.4 °C -11.5 °C 1031 hPa ESE 4.8 km/h 12.9 km/h 67% 0 mm
12:14 -6.6 °C -11.7 °C 1031 hPa SE 3.2 km/h 14.5 km/h 67% 0 mm
12:19 -6.4 °C -11.7 °C 1031 hPa NE 4.8 km/h 16.1 km/h 66% 0 mm
12:24 -6.4 °C -11.7 °C 1031 hPa NE 4.8 km/h 12.9 km/h 66% 0 mm
12:29 -6.3 °C -11.8 °C 1031 hPa East 11.3 km/h 11.3 km/h 65% 0 mm
12:34 -6.3 °C -11.4 °C 1030.7 hPa East 1.6 km/h 11.3 km/h 67% 0 mm
12:39 -6 °C -11.2 °C 1030.7 hPa East 3.2 km/h 11.3 km/h 67% 0 mm
12:44 -6.2 °C -11.5 °C 1030.7 hPa East 8 km/h 9.7 km/h 66% 0 mm
12:49 -6.1 °C -11.2 °C 1030.7 hPa East 4.8 km/h 11.3 km/h 67% 0 mm
12:54 -5.9 °C -11.3 °C 1030.7 hPa ESE 4.8 km/h 14.5 km/h 66% 0 mm
12:59 -6.1 °C -11.4 °C 1030.7 hPa East 4.8 km/h 14.5 km/h 66% 0 mm
13:04 -5.8 °C -11.2 °C 1030.4 hPa East 4.8 km/h 12.9 km/h 66% 0 mm
13:09 -5.9 °C -11.2 °C 1030.4 hPa ESE 3.2 km/h 8 km/h 66% 0 mm
13:14 -5.8 °C -11 °C 1030.4 hPa East 3.2 km/h 11.3 km/h 67% 0 mm
13:19 -5.9 °C -10.8 °C 1030.4 hPa East 9.7 km/h 14.5 km/h 68% 0 mm
13:24 -5.7 °C -10.5 °C 1030.4 hPa ESE 4.8 km/h 14.5 km/h 69% 0 mm
13:29 -5.9 °C -10.7 °C 1030 hPa ENE 8 km/h 9.7 km/h 69% 0 mm
13:34 -6.1 °C -10.8 °C 1030 hPa ENE 4.8 km/h 14.5 km/h 69% 0 mm
13:39 -6.2 °C -10.6 °C 1029.7 hPa ENE 6.4 km/h 14.5 km/h 71% 0 mm
13:44 -6.1 °C -10.3 °C 1029.7 hPa NNE 6.4 km/h 16.1 km/h 72% 0 mm
13:49 -6.3 °C -10.2 °C 1029.7 hPa NE 8 km/h 14.5 km/h 74% 0 mm
13:54 -6.3 °C -10.1 °C 1029.3 hPa NE 8 km/h 14.5 km/h 75% 0 mm
13:59 -6.4 °C -9.9 °C 1029.3 hPa NE 8 km/h 16.1 km/h 76% 0 mm
14:04 -6.4 °C -10 °C 1029.3 hPa NE 8 km/h 16.1 km/h 76% 0 mm
14:09 -6.3 °C -9.6 °C 1029 hPa NE 8 km/h 17.7 km/h 78% 0 mm
14:14 -6.3 °C -9.7 °C 1029 hPa NE 8 km/h 17.7 km/h 77% 0 mm
14:19 -6.3 °C -9.5 °C 1028.7 hPa NE 14.5 km/h 14.5 km/h 78% 0 mm
14:24 -6.3 °C -9.6 °C 1028.3 hPa NE 8 km/h 22.5 km/h 78% 0 mm
14:29 -6.2 °C -9.3 °C 1028.3 hPa NE 9.7 km/h 19.3 km/h 79% 0 mm
14:34 -6.3 °C -9.4 °C 1028.3 hPa NE 12.9 km/h 20.9 km/h 79% 0 mm
14:39 -6.4 °C -9.5 °C 1028.3 hPa NE 9.7 km/h 14.5 km/h 79% 0 mm
14:44 -6.5 °C -9.6 °C 1028.3 hPa East 11.3 km/h 17.7 km/h 79% 0 mm
14:49 -6.5 °C -9.6 °C 1028.3 hPa ENE 4.8 km/h 19.3 km/h 79% 0 mm
14:54 -6.6 °C -9.6 °C 1028.3 hPa NNE 12.9 km/h 20.9 km/h 79% 0 mm
14:59 -6.6 °C -9.4 °C 1028.3 hPa NE 9.7 km/h 20.9 km/h 80% 0 mm
15:04 -6.5 °C -9.4 °C 1028.3 hPa NE 8 km/h 19.3 km/h 80% 0 mm
15:09 -6.6 °C -9.5 °C 1028.3 hPa NE 9.7 km/h 17.7 km/h 80% 0 mm
15:14 -6.7 °C -9.6 °C 1028.3 hPa NE 9.7 km/h 22.5 km/h 80% 0 mm
15:19 -6.7 °C -9.4 °C 1028 hPa NE 11.3 km/h 22.5 km/h 81% 0 mm
15:24 -6.6 °C -9.3 °C 1028 hPa NE 4.8 km/h 17.7 km/h 81% 0 mm
15:29 -6.5 °C -9.1 °C 1028 hPa NE 17.7 km/h 17.7 km/h 82% 0 mm
15:34 -6.6 °C -9.3 °C 1028 hPa NE 8 km/h 17.7 km/h 81% 0 mm
15:39 -6.6 °C -9.1 °C 1027.7 hPa NE 9.7 km/h 17.7 km/h 82% 0 mm
15:44 -6.4 °C -9 °C 1027.7 hPa NE 12.9 km/h 19.3 km/h 82% 0 mm
15:49 -6.7 °C -9.2 °C 1027.7 hPa ENE 11.3 km/h 20.9 km/h 82% 0 mm
15:54 -6.7 °C -9.2 °C 1027.7 hPa NE 6.4 km/h 16.1 km/h 82% 0 mm
15:59 -6.6 °C -9.2 °C 1027.7 hPa NNE 8 km/h 17.7 km/h 82% 0 mm
16:04 -6.7 °C -9.3 °C 1027.7 hPa NE 11.3 km/h 22.5 km/h 82% 0 mm
16:09 -6.8 °C -9.4 °C 1027.7 hPa NE 12.9 km/h 22.5 km/h 82% 0 mm
16:14 -6.8 °C -9.3 °C 1027.7 hPa NE 11.3 km/h 22.5 km/h 82% 0 mm
16:19 -6.9 °C -9.4 °C 1027.7 hPa NE 9.7 km/h 19.3 km/h 82% 0 mm
16:24 -6.9 °C -9.5 °C 1027.7 hPa NE 11.3 km/h 19.3 km/h 82% 0 mm
16:29 -6.9 °C -9.5 °C 1027.3 hPa NE 12.9 km/h 20.9 km/h 82% 0 mm
16:34 -6.9 °C -9.3 °C 1027.3 hPa NNE 11.3 km/h 16.1 km/h 83% 0 mm
16:39 -6.9 °C -9.5 °C 1027.3 hPa NE 11.3 km/h 24.1 km/h 82% 0 mm
16:44 -7.1 °C -9.4 °C 1027.3 hPa NE 11.3 km/h 24.1 km/h 83% 0 mm
16:49 -7 °C -9.4 °C 1027.3 hPa NE 11.3 km/h 20.9 km/h 83% 0 mm
16:54 -7.1 °C -9.7 °C 1027.3 hPa ENE 16.1 km/h 22.5 km/h 82% 0 mm
16:59 -7.2 °C -9.8 °C 1027.3 hPa NE 11.3 km/h 22.5 km/h 82% 0 mm
17:04 -7.2 °C -9.6 °C 1027.3 hPa NNE 8 km/h 22.5 km/h 83% 0 mm
17:09 -7.2 °C -9.8 °C 1027 hPa NE 6.4 km/h 24.1 km/h 82% 0 mm
17:14 -7.1 °C -9.5 °C 1027 hPa NE 12.9 km/h 24.1 km/h 83% 0 mm
17:19 -7.1 °C -9.7 °C 1027 hPa NE 12.9 km/h 22.5 km/h 82% 0 mm
17:24 -7.1 °C -9.4 °C 1027 hPa NE 12.9 km/h 22.5 km/h 83% 0 mm
17:29 -7.2 °C -9.8 °C 1027 hPa NE 12.9 km/h 24.1 km/h 82% 0 mm
17:34 -7.3 °C -9.7 °C 1027 hPa NE 14.5 km/h 24.1 km/h 83% 0 mm
17:39 -7.3 °C -9.7 °C 1027 hPa NE 20.9 km/h 20.9 km/h 83% 0 mm
17:44 -7.3 °C -9.7 °C 1027 hPa NE 12.9 km/h 24.1 km/h 83% 0 mm
17:49 -7.3 °C -9.7 °C 1027 hPa NE 12.9 km/h 24.1 km/h 83% 0 mm
17:54 -7.4 °C -9.8 °C 1027 hPa NE 12.9 km/h 22.5 km/h 83% 0 mm
17:59 -7.4 °C -9.6 °C 1027 hPa NE 14.5 km/h 24.1 km/h 84% 0 mm
18:04 -7.4 °C -9.8 °C 1027 hPa NE 19.3 km/h 22.5 km/h 83% 0 mm
18:09 -7.4 °C -9.8 °C 1027 hPa NE 9.7 km/h 22.5 km/h 83% 0 mm
18:14 -7.4 °C -9.8 °C 1027 hPa NE 12.9 km/h 22.5 km/h 83% 0 mm
18:19 -7.4 °C -9.7 °C 1027 hPa ENE 14.5 km/h 25.7 km/h 84% 0 mm
18:24 -7.4 °C -9.8 °C 1027 hPa NE 12.9 km/h 25.7 km/h 83% 0 mm
18:29 -7.4 °C -9.7 °C 1027 hPa NE 12.9 km/h 25.7 km/h 84% 0 mm
18:34 -7.4 °C -9.7 °C 1027 hPa NE 9.7 km/h 20.9 km/h 84% 0 mm
18:39 -7.5 °C -9.7 °C 1026.6 hPa NE 11.3 km/h 20.9 km/h 84% 0 mm
18:44 -7.6 °C -9.8 °C 1027 hPa NE 11.3 km/h 20.9 km/h 84% 0 mm
18:49 -7.6 °C -9.7 °C 1026.6 hPa ENE 8 km/h 20.9 km/h 85% 0 mm
18:54 -7.6 °C -9.7 °C 1027 hPa NE 12.9 km/h 24.1 km/h 85% 0 mm
18:59 -7.7 °C -9.8 °C 1027 hPa NE 11.3 km/h 24.1 km/h 85% 0 mm
19:04 -7.7 °C -9.6 °C 1027 hPa ENE 8 km/h 14.5 km/h 86% 0 mm
19:09 -7.7 °C -9.6 °C 1027 hPa NE 12.9 km/h 19.3 km/h 86% 0 mm
19:14 -7.7 °C -9.7 °C 1027 hPa NE 16.1 km/h 20.9 km/h 86% 0 mm
19:19 -7.8 °C -9.7 °C 1027 hPa ENE 12.9 km/h 17.7 km/h 86% 0 mm
19:24 -7.8 °C -9.8 °C 1026.6 hPa ENE 8 km/h 17.7 km/h 86% 0 mm
19:29 -7.9 °C -9.9 °C 1026.6 hPa NE 9.7 km/h 22.5 km/h 86% 0 mm
19:34 -8 °C -9.9 °C 1026.6 hPa NE 9.7 km/h 22.5 km/h 86% 0 mm
19:39 -8.1 °C -10 °C 1026.6 hPa NE 11.3 km/h 22.5 km/h 86% 0 mm
19:44 -8.1 °C -10.1 °C 1026.6 hPa NE 14.5 km/h 25.7 km/h 86% 0 mm
19:49 -8.2 °C -10.1 °C 1026.6 hPa NE 14.5 km/h 25.7 km/h 86% 0 mm
19:54 -8.2 °C -10.1 °C 1026.6 hPa NE 12.9 km/h 24.1 km/h 86% 0 mm
19:59 -8.2 °C -10.1 °C 1026.6 hPa NE 6.4 km/h 16.1 km/h 86% 0 mm
20:04 -8.2 °C -10.1 °C 1026.6 hPa NE 14.5 km/h 20.9 km/h 86% 0 mm
20:09 -8.2 °C -10.1 °C 1026.6 hPa ENE 12.9 km/h 24.1 km/h 86% 0 mm
20:14 -8.2 °C -10.2 °C 1026.6 hPa NE 20.9 km/h 25.7 km/h 86% 0 mm
20:19 -8.3 °C -10.2 °C 1026.3 hPa NE 16.1 km/h 25.7 km/h 86% 0 mm
20:24 -8.3 °C -10.3 °C 1026.3 hPa NE 14.5 km/h 24.1 km/h 86% 0 mm
20:29 -8.4 °C -10.3 °C 1026.3 hPa NE 8 km/h 33.8 km/h 86% 0 mm
20:34 -8.4 °C -10.3 °C 1026.3 hPa NE 12.9 km/h 33.8 km/h 86% 0 mm
20:39 -8.4 °C -10.4 °C 1026.3 hPa NE 11.3 km/h 24.1 km/h 86% 0 mm
20:44 -8.4 °C -10.3 °C 1026.3 hPa ENE 8 km/h 19.3 km/h 86% 0 mm
20:49 -8.4 °C -10.3 °C 1026.3 hPa East 8 km/h 19.3 km/h 86% 0 mm
20:54 -8.4 °C -10.3 °C 1026.3 hPa NE 17.7 km/h 20.9 km/h 86% 0 mm
20:59 -8.4 °C -10.3 °C 1026.3 hPa NNE 11.3 km/h 22.5 km/h 86% 0 mm
21:04 -8.4 °C -10.3 °C 1026 hPa NE 6.4 km/h 19.3 km/h 86% 0 mm
21:09 -8.3 °C -10.3 °C 1026 hPa ENE 11.3 km/h 22.5 km/h 86% 0 mm
21:14 -8.3 °C -10.3 °C 1026 hPa ENE 9.7 km/h 22.5 km/h 86% 0 mm
21:19 -8.3 °C -10.2 °C 1026 hPa ENE 9.7 km/h 20.9 km/h 86% 0 mm
21:24 -8.3 °C -10.2 °C 1026 hPa NE 6.4 km/h 22.5 km/h 86% 0 mm
21:29 -8.2 °C -10.2 °C 1026 hPa NE 6.4 km/h 17.7 km/h 86% 0 mm
21:34 -8.2 °C -10.1 °C 1025.6 hPa NE 8 km/h 17.7 km/h 86% 0 mm
21:39 -8.2 °C -10.1 °C 1025.6 hPa NE 6.4 km/h 17.7 km/h 86% 0 mm
21:44 -8.2 °C -10.1 °C 1025.6 hPa NE 11.3 km/h 20.9 km/h 86% 0 mm
21:49 -8.2 °C -10.1 °C 1025.3 hPa ENE 14.5 km/h 20.9 km/h 86% 0 mm
21:54 -8.2 °C -10.1 °C 1025.3 hPa NE 4.8 km/h 19.3 km/h 86% 0 mm
21:59 -8.2 °C -10.1 °C 1025.3 hPa NE 11.3 km/h 17.7 km/h 86% 0 mm
22:04 -8.1 °C -10.1 °C 1025.3 hPa NE 17.7 km/h 17.7 km/h 86% 0 mm
22:09 -8.1 °C -10 °C 1025.3 hPa ENE 3.2 km/h 17.7 km/h 86% 0 mm
22:14 -8.1 °C -10.1 °C 1025.3 hPa NE 9.7 km/h 17.7 km/h 86% 0 mm
22:19 -8.1 °C -10 °C 1025.3 hPa NE 9.7 km/h 17.7 km/h 86% 0 mm
22:24 -8.1 °C -10.1 °C 1024.9 hPa NE 11.3 km/h 19.3 km/h 86% 0 mm
22:29 -8.1 °C -10.1 °C 1024.9 hPa NE 11.3 km/h 24.1 km/h 86% 0 mm
22:34 -8.1 °C -10.1 °C 1024.9 hPa ENE 12.9 km/h 22.5 km/h 86% 0 mm
22:39 -8.2 °C -10.1 °C 1024.6 hPa NE 8 km/h 22.5 km/h 86% 0 mm
22:44 -8.2 °C -10.1 °C 1024.9 hPa ENE 12.9 km/h 19.3 km/h 86% 0 mm
22:49 -8.2 °C -10.1 °C 1024.9 hPa NNE 16.1 km/h 25.7 km/h 86% 0 mm
22:54 -8.2 °C -10.1 °C 1024.6 hPa NE 8 km/h 25.7 km/h 86% 0 mm
22:59 -8.2 °C -10.1 °C 1024.9 hPa NE 8 km/h 22.5 km/h 86% 0 mm
23:04 -8.2 °C -10.1 °C 1024.6 hPa ENE 16.1 km/h 27.4 km/h 86% 0 mm
23:09 -8.2 °C -10.1 °C 1024.6 hPa NE 12.9 km/h 27.4 km/h 86% 0 mm
23:14 -8.2 °C -10.1 °C 1024.6 hPa NE 12.9 km/h 25.7 km/h 86% 0 mm
23:19 -8.2 °C -10.1 °C 1024.3 hPa NE 11.3 km/h 27.4 km/h 86% 0 mm
23:24 -8.1 °C -10.1 °C 1024.3 hPa NE 12.9 km/h 27.4 km/h 86% 0 mm
23:29 -8.1 °C -10.1 °C 1024.3 hPa NE 9.7 km/h 17.7 km/h 86% 0 mm
23:34 -8.1 °C -10 °C 1024.3 hPa NE 4.8 km/h 19.3 km/h 86% 0 mm
23:39 -8.1 °C -10 °C 1024.3 hPa ENE 12.9 km/h 24.1 km/h 86% 0 mm
23:44 -8.1 °C -10 °C 1024.3 hPa NE 9.7 km/h 24.1 km/h 86% 0 mm
23:49 -8.1 °C -10 °C 1024.3 hPa NE 16.1 km/h 19.3 km/h 86% 0 mm
23:54 -8.1 °C -10 °C 1023.9 hPa NE 11.3 km/h 16.1 km/h 86% 0 mm
23:59 -8.1 °C -10 °C 1023.9 hPa ENE 12.9 km/h 17.7 km/h 86% 0 mm
Buffalo, New York, USA
Compliments of Weather Underground - 2.5 mb